Location: Coopersdale
(40.3556°N, 78.9372°W)
Time: 02:52:05
(UTC+00:00)

Tiros 1 despin weight - Pass Details

Date: 28 January 2021
Orbit: 593 x 642 km, 48.2° (Epoch: 02 March)

Event Time Altitude Azimuth Distance (km) Brightness Sun altitude
Rises 16:03:46 0° 190° (S) 2,913 ? 28.4°
Reaches altitude 10° 16:06:58 10° 167° (SSE) 2,001 ? 28.6°
Maximum altitude 16:09:35 15° 132° (SE) 1,686 ? 28.8°
Drops below altitude 10° 16:12:11 10° 97° (E) 1,992 ? 29.0°
Sets 16:15:21 0° 74° (ENE) 2,891 ? 29.2°
